STARLINK-35110

Last updated on Tue Oct 07 2025 00:02:06 GMT+0000 (Coordinated Universal Time)

1 65539U 25200V 25279.50003471 .00154600 00000+0 27979-2 0 9993 2 65539 97.6038 346.2188 0001543 103.8194 14.9332 15.49094162 5811

Satellite not in orbit

STARLINK-35110